Year,Month,Day,Hour,Minute,Value (Times are PST for temperature in C)
2012,05,26,00,00,14.50
2012,05,26,00,01,14.50
2012,05,26,00,02,14.50
2012,05,26,00,03,14.40
2012,05,26,00,04,14.40
2012,05,26,00,05,14.40
2012,05,26,00,06,14.40
2012,05,26,00,07,14.40
2012,05,26,00,08,14.40
2012,05,26,00,09,14.30
2012,05,26,00,10,14.30
2012,05,26,00,11,14.30
2012,05,26,00,12,14.30
2012,05,26,00,13,14.30
2012,05,26,00,14,14.30
2012,05,26,00,15,14.30
2012,05,26,00,16,14.30
2012,05,26,00,17,14.30
2012,05,26,00,18,14.30
2012,05,26,00,19,14.30
2012,05,26,00,20,14.30
2012,05,26,00,21,14.30
2012,05,26,00,22,14.30
2012,05,26,00,23,14.30
2012,05,26,00,24,14.30
2012,05,26,00,25,14.30
2012,05,26,00,26,14.30
2012,05,26,00,27,14.30
2012,05,26,00,28,14.30
2012,05,26,00,29,14.20
2012,05,26,00,30,14.20
2012,05,26,00,31,14.20
2012,05,26,00,32,14.20
2012,05,26,00,33,14.20
2012,05,26,00,34,14.10
2012,05,26,00,35,14.10
2012,05,26,00,36,14.10
2012,05,26,00,37,14.00
2012,05,26,00,38,14.00
2012,05,26,00,39,14.00
2012,05,26,00,40,13.90
2012,05,26,00,41,13.90
2012,05,26,00,42,13.90
2012,05,26,00,43,13.80
2012,05,26,00,44,13.80
2012,05,26,00,45,13.80
2012,05,26,00,46,13.70
2012,05,26,00,47,13.70
2012,05,26,00,48,13.70
2012,05,26,00,49,13.60
2012,05,26,00,50,13.60
2012,05,26,00,51,13.60
2012,05,26,00,52,13.60
2012,05,26,00,53,13.50
2012,05,26,00,54,13.50
2012,05,26,00,55,13.50
2012,05,26,00,56,13.40
2012,05,26,00,57,13.40
2012,05,26,00,58,13.40
2012,05,26,00,59,13.40
2012,05,26,01,00,13.40
2012,05,26,01,01,13.30
2012,05,26,01,02,13.30
2012,05,26,01,03,13.30
2012,05,26,01,04,13.30
2012,05,26,01,05,13.20
2012,05,26,01,06,13.20
2012,05,26,01,07,13.20
2012,05,26,01,08,13.20
2012,05,26,01,09,13.20
2012,05,26,01,10,13.20
2012,05,26,01,11,13.10
2012,05,26,01,12,13.10
2012,05,26,01,13,13.10
2012,05,26,01,14,13.10
2012,05,26,01,15,13.10
2012,05,26,01,16,13.10
2012,05,26,01,17,13.00
2012,05,26,01,18,13.00
2012,05,26,01,19,13.00
2012,05,26,01,20,12.90
2012,05,26,01,21,12.90
2012,05,26,01,22,12.90
2012,05,26,01,23,12.90
2012,05,26,01,24,12.80
2012,05,26,01,25,12.80
2012,05,26,01,26,12.80
2012,05,26,01,27,12.80
2012,05,26,01,28,12.80
2012,05,26,01,29,12.80
2012,05,26,01,30,12.70
2012,05,26,01,31,12.70
2012,05,26,01,32,12.70
2012,05,26,01,33,12.70
2012,05,26,01,34,12.70
2012,05,26,01,35,12.60
2012,05,26,01,36,12.60
2012,05,26,01,37,12.60
2012,05,26,01,38,12.60
2012,05,26,01,39,12.60
2012,05,26,01,40,12.60
2012,05,26,01,41,12.50
2012,05,26,01,42,12.50
2012,05,26,01,43,12.50
2012,05,26,01,44,12.50
2012,05,26,01,45,12.40
2012,05,26,01,46,12.40
2012,05,26,01,47,12.40
2012,05,26,01,48,12.40
2012,05,26,01,49,12.40
2012,05,26,01,50,12.40
2012,05,26,01,51,12.40
2012,05,26,01,52,12.40
2012,05,26,01,53,12.30
2012,05,26,01,54,12.30
2012,05,26,01,55,12.30
2012,05,26,01,56,12.30
2012,05,26,01,57,12.30
2012,05,26,01,58,12.30
2012,05,26,01,59,12.20
2012,05,26,02,00,12.20
2012,05,26,02,01,12.20
2012,05,26,02,02,12.20
2012,05,26,02,03,12.20
2012,05,26,02,04,12.20
2012,05,26,02,05,12.20
2012,05,26,02,06,12.20
2012,05,26,02,07,12.20
2012,05,26,02,08,12.20
2012,05,26,02,09,12.10
2012,05,26,02,10,12.10
2012,05,26,02,11,12.10
2012,05,26,02,12,12.10
2012,05,26,02,13,12.10
2012,05,26,02,14,12.10
2012,05,26,02,15,12.00
2012,05,26,02,16,12.00
2012,05,26,02,17,12.00
2012,05,26,02,18,11.90
2012,05,26,02,19,11.90
2012,05,26,02,20,11.90
2012,05,26,02,21,11.90
2012,05,26,02,22,11.90
2012,05,26,02,23,11.80
2012,05,26,02,24,11.80
2012,05,26,02,25,11.80
2012,05,26,02,26,11.80
2012,05,26,02,27,11.80
2012,05,26,02,28,11.80
2012,05,26,02,29,11.80
2012,05,26,02,30,11.80
2012,05,26,02,31,11.70
2012,05,26,02,32,11.70
2012,05,26,02,33,11.70
2012,05,26,02,34,11.70
2012,05,26,02,35,11.70
2012,05,26,02,36,11.70
2012,05,26,02,37,11.70
2012,05,26,02,38,11.70
2012,05,26,02,39,11.70
2012,05,26,02,40,11.70
2012,05,26,02,41,11.60
2012,05,26,02,42,11.60
2012,05,26,02,43,11.60
2012,05,26,02,44,11.60
2012,05,26,02,45,11.60
2012,05,26,02,46,11.50
2012,05,26,02,47,11.50
2012,05,26,02,48,11.50
2012,05,26,02,49,11.40
2012,05,26,02,50,11.40
2012,05,26,02,51,11.40
2012,05,26,02,52,11.40
2012,05,26,02,53,11.40
2012,05,26,02,54,11.30
2012,05,26,02,55,11.30
2012,05,26,02,56,11.30
2012,05,26,02,57,11.30
2012,05,26,02,58,11.30
2012,05,26,02,59,11.40
2012,05,26,03,00,11.40
2012,05,26,03,01,11.40
2012,05,26,03,02,11.40
2012,05,26,03,03,11.40
2012,05,26,03,04,11.40
2012,05,26,03,05,11.50
2012,05,26,03,06,11.50
2012,05,26,03,07,11.60
2012,05,26,03,08,11.70
2012,05,26,03,09,11.70
2012,05,26,03,10,11.80
2012,05,26,03,11,11.80
2012,05,26,03,12,11.80
2012,05,26,03,13,11.90
2012,05,26,03,14,11.90
2012,05,26,03,15,11.90
2012,05,26,03,16,11.90
2012,05,26,03,17,11.90
2012,05,26,03,18,11.80
2012,05,26,03,19,11.80
2012,05,26,03,20,11.80
2012,05,26,03,21,11.80
2012,05,26,03,22,11.80
2012,05,26,03,23,11.70
2012,05,26,03,24,11.70
2012,05,26,03,25,11.70
2012,05,26,03,26,11.70
2012,05,26,03,27,11.60
2012,05,26,03,28,11.60
2012,05,26,03,29,11.60
2012,05,26,03,30,11.60
2012,05,26,03,31,11.60
2012,05,26,03,32,11.50
2012,05,26,03,33,11.50
2012,05,26,03,34,11.40
2012,05,26,03,35,11.40
2012,05,26,03,36,11.40
2012,05,26,03,37,11.30
2012,05,26,03,38,11.30
2012,05,26,03,39,11.20
2012,05,26,03,40,11.20
2012,05,26,03,41,11.20
2012,05,26,03,42,11.10
2012,05,26,03,43,11.10
2012,05,26,03,44,11.00
2012,05,26,03,45,11.00
2012,05,26,03,46,10.90
2012,05,26,03,47,10.90
2012,05,26,03,48,10.90
2012,05,26,03,49,10.80
2012,05,26,03,50,10.80
2012,05,26,03,51,10.80
2012,05,26,03,52,10.70
2012,05,26,03,53,10.70
2012,05,26,03,54,10.70
2012,05,26,03,55,10.70
2012,05,26,03,56,10.70
2012,05,26,03,57,10.70
2012,05,26,03,58,10.60
2012,05,26,03,59,10.60
2012,05,26,04,00,10.60
2012,05,26,04,01,10.60
2012,05,26,04,02,10.60
2012,05,26,04,03,10.60
2012,05,26,04,04,10.50
2012,05,26,04,05,10.50
2012,05,26,04,06,10.50
2012,05,26,04,07,10.50
2012,05,26,04,08,10.50
2012,05,26,04,09,10.50
2012,05,26,04,10,10.50
2012,05,26,04,11,10.50
2012,05,26,04,12,10.50
2012,05,26,04,13,10.50
2012,05,26,04,14,10.50
2012,05,26,04,15,10.50
2012,05,26,04,16,10.50
2012,05,26,04,17,10.40
2012,05,26,04,18,10.40
2012,05,26,04,19,10.30
2012,05,26,04,20,10.30
2012,05,26,04,21,10.20
2012,05,26,04,22,10.20
2012,05,26,04,23,10.20
2012,05,26,04,24,10.20
2012,05,26,04,25,10.10
2012,05,26,04,26,10.10
2012,05,26,04,27,10.10
2012,05,26,04,28,10.10
2012,05,26,04,29,10.10
2012,05,26,04,30,10.10
2012,05,26,04,31,10.10
2012,05,26,04,32,10.10
2012,05,26,04,33,10.00
2012,05,26,04,34,10.00
2012,05,26,04,35,10.00
2012,05,26,04,36,9.90
2012,05,26,04,37,9.90
2012,05,26,04,38,9.80
2012,05,26,04,39,9.80
2012,05,26,04,40,9.80
2012,05,26,04,41,9.80
2012,05,26,04,42,9.80
2012,05,26,04,43,9.80
2012,05,26,04,44,9.80
2012,05,26,04,45,9.80
2012,05,26,04,46,9.80
2012,05,26,04,47,9.80
2012,05,26,04,48,9.80
2012,05,26,04,49,9.80
2012,05,26,04,50,9.80
2012,05,26,04,51,9.80
2012,05,26,04,52,9.80
2012,05,26,04,53,9.70
2012,05,26,04,54,9.70
2012,05,26,04,55,9.70
2012,05,26,04,56,9.70
2012,05,26,04,57,9.70
2012,05,26,04,58,9.70
2012,05,26,04,59,9.60
2012,05,26,05,00,9.60
2012,05,26,05,01,9.70
2012,05,26,05,02,9.60
2012,05,26,05,03,9.60
2012,05,26,05,04,9.60
2012,05,26,05,05,9.60
2012,05,26,05,06,9.60
2012,05,26,05,07,9.60
2012,05,26,05,08,9.60
2012,05,26,05,09,9.60
2012,05,26,05,10,9.60
2012,05,26,05,11,9.60
2012,05,26,05,12,9.60
2012,05,26,05,13,9.60
2012,05,26,05,14,9.60
2012,05,26,05,15,9.60
2012,05,26,05,16,9.60
2012,05,26,05,17,9.60
2012,05,26,05,18,9.60
2012,05,26,05,19,9.60
2012,05,26,05,20,9.60
2012,05,26,05,21,9.60
2012,05,26,05,22,9.60
2012,05,26,05,23,9.60
2012,05,26,05,24,9.60
2012,05,26,05,25,9.60
2012,05,26,05,26,9.60
2012,05,26,05,27,9.60
2012,05,26,05,28,9.60
2012,05,26,05,29,9.60
2012,05,26,05,30,9.50
2012,05,26,05,31,9.50
2012,05,26,05,32,9.50
2012,05,26,05,33,9.50
2012,05,26,05,34,9.40
2012,05,26,05,35,9.40
2012,05,26,05,36,9.40
2012,05,26,05,37,9.40
2012,05,26,05,38,9.40
2012,05,26,05,39,9.40
2012,05,26,05,40,9.40
2012,05,26,05,41,9.40
2012,05,26,05,42,9.40
2012,05,26,05,43,9.40
2012,05,26,05,44,9.40
2012,05,26,05,45,9.30
2012,05,26,05,46,9.30
2012,05,26,05,47,9.30
2012,05,26,05,48,9.30
2012,05,26,05,49,9.30
2012,05,26,05,50,9.30
2012,05,26,05,51,9.30
2012,05,26,05,52,9.30
2012,05,26,05,53,9.40
2012,05,26,05,54,9.40
2012,05,26,05,55,9.40
2012,05,26,05,56,9.40
2012,05,26,05,57,9.40
2012,05,26,05,58,9.40
2012,05,26,05,59,9.40
2012,05,26,06,00,9.40
2012,05,26,06,01,9.40
2012,05,26,06,02,9.40
2012,05,26,06,03,9.40
2012,05,26,06,04,9.40
2012,05,26,06,05,9.50
2012,05,26,06,06,9.60
2012,05,26,06,07,9.60
2012,05,26,06,08,9.60
2012,05,26,06,09,9.70
2012,05,26,06,10,9.70
2012,05,26,06,11,9.70
2012,05,26,06,12,9.80
2012,05,26,06,13,9.80
2012,05,26,06,14,9.80
2012,05,26,06,15,9.90
2012,05,26,06,16,9.90
2012,05,26,06,17,9.90
2012,05,26,06,18,10.00
2012,05,26,06,19,10.00
2012,05,26,06,20,10.10
2012,05,26,06,21,10.10
2012,05,26,06,22,10.20
2012,05,26,06,23,10.20
2012,05,26,06,24,10.20
2012,05,26,06,25,10.30
2012,05,26,06,26,10.30
2012,05,26,06,27,10.30
2012,05,26,06,28,10.30
2012,05,26,06,29,10.40
2012,05,26,06,30,10.40
2012,05,26,06,31,10.40
2012,05,26,06,32,10.50
2012,05,26,06,33,10.50
2012,05,26,06,34,10.60
2012,05,26,06,35,10.70
2012,05,26,06,36,10.70
2012,05,26,06,37,10.80
2012,05,26,06,38,10.90
2012,05,26,06,39,11.00
2012,05,26,06,40,11.10
2012,05,26,06,41,11.10
2012,05,26,06,42,11.20
2012,05,26,06,43,11.30
2012,05,26,06,44,11.40
2012,05,26,06,45,11.40
2012,05,26,06,46,11.50
2012,05,26,06,47,11.60
2012,05,26,06,48,11.70
2012,05,26,06,49,11.70
2012,05,26,06,50,11.80
2012,05,26,06,51,11.90
2012,05,26,06,52,12.00
2012,05,26,06,53,12.00
2012,05,26,06,54,12.10
2012,05,26,06,55,12.10
2012,05,26,06,56,12.20
2012,05,26,06,57,12.30
2012,05,26,06,58,12.40
2012,05,26,06,59,12.50
2012,05,26,07,00,12.60
2012,05,26,07,01,12.70
2012,05,26,07,02,12.80
2012,05,26,07,03,12.90
2012,05,26,07,04,13.00
2012,05,26,07,05,13.00
2012,05,26,07,06,13.10
2012,05,26,07,07,13.20
2012,05,26,07,08,13.20
2012,05,26,07,09,13.30
2012,05,26,07,10,13.30
2012,05,26,07,11,13.40
2012,05,26,07,12,13.40
2012,05,26,07,13,13.50
2012,05,26,07,14,13.50
2012,05,26,07,15,13.50
2012,05,26,07,16,13.60
2012,05,26,07,17,13.60
2012,05,26,07,18,13.70
2012,05,26,07,19,13.70
2012,05,26,07,20,13.80
2012,05,26,07,21,13.80
2012,05,26,07,22,13.90
2012,05,26,07,23,13.90
2012,05,26,07,24,13.90
2012,05,26,07,25,14.00
2012,05,26,07,26,14.00
2012,05,26,07,27,14.10
2012,05,26,07,28,14.10
2012,05,26,07,29,14.10
2012,05,26,07,30,14.10
2012,05,26,07,31,14.20
2012,05,26,07,32,14.20
2012,05,26,07,33,14.20
2012,05,26,07,34,14.20
2012,05,26,07,35,14.20
2012,05,26,07,36,14.20
2012,05,26,07,37,14.20
2012,05,26,07,38,14.20
2012,05,26,07,39,14.30
2012,05,26,07,40,14.30
2012,05,26,07,41,14.30
2012,05,26,07,42,14.30
2012,05,26,07,43,14.40
2012,05,26,07,44,14.40
2012,05,26,07,45,14.50
2012,05,26,07,46,14.50
2012,05,26,07,47,14.60
2012,05,26,07,48,14.60
2012,05,26,07,49,14.60
2012,05,26,07,50,14.70
2012,05,26,07,51,14.70
2012,05,26,07,52,14.70
2012,05,26,07,53,14.80
2012,05,26,07,54,14.80
2012,05,26,07,55,14.80
2012,05,26,07,56,14.90
2012,05,26,07,57,14.90
2012,05,26,07,58,15.00
2012,05,26,07,59,15.00
2012,05,26,08,00,15.00
2012,05,26,08,01,15.00
2012,05,26,08,02,15.00
2012,05,26,08,03,15.00
2012,05,26,08,04,15.00
2012,05,26,08,05,15.10
2012,05,26,08,06,15.20
2012,05,26,08,07,15.30
2012,05,26,08,08,15.40
2012,05,26,08,09,15.40
2012,05,26,08,10,15.50
2012,05,26,08,11,15.60
2012,05,26,08,12,15.60
2012,05,26,08,13,15.70
2012,05,26,08,14,15.70
2012,05,26,08,15,15.80
2012,05,26,08,16,15.80
2012,05,26,08,17,15.80
2012,05,26,08,18,15.80
2012,05,26,08,19,15.80
2012,05,26,08,20,15.90
2012,05,26,08,21,15.90
2012,05,26,08,22,15.90
2012,05,26,08,23,16.00
2012,05,26,08,24,16.10
2012,05,26,08,25,16.10
2012,05,26,08,26,16.20
2012,05,26,08,27,16.20
2012,05,26,08,28,16.20
2012,05,26,08,29,16.30
2012,05,26,08,30,16.30
2012,05,26,08,31,16.40
2012,05,26,08,32,16.40
2012,05,26,08,33,16.50
2012,05,26,08,34,16.60
2012,05,26,08,35,16.60
2012,05,26,08,36,16.70
2012,05,26,08,37,16.80
2012,05,26,08,38,16.80
2012,05,26,08,39,16.80
2012,05,26,08,40,16.90
2012,05,26,08,41,16.90
2012,05,26,08,42,16.90
2012,05,26,08,43,16.90
2012,05,26,08,44,16.90
2012,05,26,08,45,16.90
2012,05,26,08,46,16.90
2012,05,26,08,47,16.90
2012,05,26,08,48,16.90
2012,05,26,08,49,16.90
2012,05,26,08,50,16.90
2012,05,26,08,51,16.90
2012,05,26,08,52,16.90
2012,05,26,08,53,16.90
2012,05,26,08,54,17.00
2012,05,26,08,55,17.00
2012,05,26,08,56,17.00
2012,05,26,08,57,17.00
2012,05,26,08,58,17.00
2012,05,26,08,59,17.00
2012,05,26,09,00,17.10
2012,05,26,09,01,17.20
2012,05,26,09,02,17.20
2012,05,26,09,03,17.30
2012,05,26,09,04,17.30
2012,05,26,09,05,17.40
2012,05,26,09,06,17.40
2012,05,26,09,07,17.40
2012,05,26,09,08,17.40
2012,05,26,09,09,17.40
2012,05,26,09,10,17.40
2012,05,26,09,11,17.40
2012,05,26,09,12,17.50
2012,05,26,09,13,17.50
2012,05,26,09,14,17.40
2012,05,26,09,15,17.40
2012,05,26,09,16,17.40
2012,05,26,09,17,17.50
2012,05,26,09,18,17.50
2012,05,26,09,19,17.60
2012,05,26,09,20,17.60
2012,05,26,09,21,17.70
2012,05,26,09,22,17.80
2012,05,26,09,23,17.80
2012,05,26,09,24,17.90
2012,05,26,09,25,18.00
2012,05,26,09,26,18.00
2012,05,26,09,27,18.00
2012,05,26,09,28,18.10
2012,05,26,09,29,18.10
2012,05,26,09,30,18.10
2012,05,26,09,31,18.10
2012,05,26,09,32,18.00
2012,05,26,09,33,18.00
2012,05,26,09,34,18.00
2012,05,26,09,35,18.10
2012,05,26,09,36,18.10
2012,05,26,09,37,18.20
2012,05,26,09,38,18.30
2012,05,26,09,39,18.30
2012,05,26,09,40,18.30
2012,05,26,09,41,18.30
2012,05,26,09,42,18.30
2012,05,26,09,43,18.20
2012,05,26,09,44,18.20
2012,05,26,09,45,18.20
2012,05,26,09,46,18.20
2012,05,26,09,47,18.20
2012,05,26,09,48,18.30
2012,05,26,09,49,18.30
2012,05,26,09,50,18.30
2012,05,26,09,51,18.30
2012,05,26,09,52,18.30
2012,05,26,09,53,18.40
2012,05,26,09,54,18.40
2012,05,26,09,55,18.50
2012,05,26,09,56,18.60
2012,05,26,09,57,18.60
2012,05,26,09,58,18.70
2012,05,26,09,59,18.80
2012,05,26,10,00,18.80
2012,05,26,10,01,18.80
2012,05,26,10,02,18.80
2012,05,26,10,03,18.80
2012,05,26,10,04,18.80
2012,05,26,10,05,18.80
2012,05,26,10,06,18.80
2012,05,26,10,07,18.80
2012,05,26,10,08,18.80
2012,05,26,10,09,18.80
2012,05,26,10,10,18.80
2012,05,26,10,11,18.80
2012,05,26,10,12,18.80
2012,05,26,10,13,18.70
2012,05,26,10,14,18.70
2012,05,26,10,15,18.70
2012,05,26,10,16,18.70
2012,05,26,10,17,18.70
2012,05,26,10,18,18.60
2012,05,26,10,19,18.60
2012,05,26,10,20,18.50
2012,05,26,10,21,18.50
2012,05,26,10,22,18.50
2012,05,26,10,23,18.50
2012,05,26,10,24,18.50
2012,05,26,10,25,18.50
2012,05,26,10,26,18.50
2012,05,26,10,27,18.50
2012,05,26,10,28,18.50
2012,05,26,10,29,18.60
2012,05,26,10,30,18.70
2012,05,26,10,31,18.70
2012,05,26,10,32,18.70
2012,05,26,10,33,18.70
2012,05,26,10,34,18.70
2012,05,26,10,35,18.60
2012,05,26,10,36,18.60
2012,05,26,10,37,18.60
2012,05,26,10,38,18.60
2012,05,26,10,39,18.60
2012,05,26,10,40,18.50
2012,05,26,10,41,18.50
2012,05,26,10,42,18.60
2012,05,26,10,43,18.50
2012,05,26,10,44,18.50
2012,05,26,10,45,18.50
2012,05,26,10,46,18.40
2012,05,26,10,47,18.40
2012,05,26,10,48,18.40
2012,05,26,10,49,18.40
2012,05,26,10,50,18.40
2012,05,26,10,51,18.30
2012,05,26,10,52,18.30
2012,05,26,10,53,18.30
2012,05,26,10,54,18.30
2012,05,26,10,55,18.30
2012,05,26,10,56,18.30
2012,05,26,10,57,18.30
2012,05,26,10,58,18.40
2012,05,26,10,59,18.50
2012,05,26,11,00,18.50
2012,05,26,11,01,18.60
2012,05,26,11,02,18.70
2012,05,26,11,03,18.80
2012,05,26,11,04,18.80
2012,05,26,11,05,18.90
2012,05,26,11,06,19.00
2012,05,26,11,07,19.00
2012,05,26,11,08,19.10
2012,05,26,11,09,19.20
2012,05,26,11,10,19.20
2012,05,26,11,11,19.20
2012,05,26,11,12,19.20
2012,05,26,11,13,19.30
2012,05,26,11,14,19.30
2012,05,26,11,15,19.30
2012,05,26,11,16,19.30
2012,05,26,11,17,19.30
2012,05,26,11,18,19.30
2012,05,26,11,19,19.30
2012,05,26,11,20,19.40
2012,05,26,11,21,19.40
2012,05,26,11,22,19.50
2012,05,26,11,23,19.60
2012,05,26,11,24,19.70
2012,05,26,11,25,19.80
2012,05,26,11,26,19.80
2012,05,26,11,27,19.90
2012,05,26,11,28,20.00
2012,05,26,11,29,20.10
2012,05,26,11,30,20.10
2012,05,26,11,31,20.20
2012,05,26,11,32,20.30
2012,05,26,11,33,20.30
2012,05,26,11,34,20.30
2012,05,26,11,35,20.30
2012,05,26,11,36,20.40
2012,05,26,11,37,20.40
2012,05,26,11,38,20.50
2012,05,26,11,39,20.50
2012,05,26,11,40,20.50
2012,05,26,11,41,20.50
2012,05,26,11,42,20.40
2012,05,26,11,43,20.40
2012,05,26,11,44,20.30
2012,05,26,11,45,20.30
2012,05,26,11,46,20.30
2012,05,26,11,47,20.20
2012,05,26,11,48,20.20
2012,05,26,11,49,20.20
2012,05,26,11,50,20.30
2012,05,26,11,51,20.30
2012,05,26,11,52,20.40
2012,05,26,11,53,20.50
2012,05,26,11,54,20.60
2012,05,26,11,55,20.70
2012,05,26,11,56,20.80
2012,05,26,11,57,20.90
2012,05,26,11,58,21.00
2012,05,26,11,59,21.10
2012,05,26,12,00,21.10
2012,05,26,12,01,21.10
2012,05,26,12,02,21.10
2012,05,26,12,03,21.00
2012,05,26,12,04,20.90
2012,05,26,12,05,20.90
2012,05,26,12,06,20.90
2012,05,26,12,07,20.90
2012,05,26,12,08,20.90
2012,05,26,12,09,20.80
2012,05,26,12,10,20.80
2012,05,26,12,11,20.70
2012,05,26,12,12,20.60
2012,05,26,12,13,20.50
2012,05,26,12,14,20.40
2012,05,26,12,15,20.30
2012,05,26,12,16,20.20
2012,05,26,12,17,20.20
2012,05,26,12,18,20.20
2012,05,26,12,19,20.20
2012,05,26,12,20,20.20
2012,05,26,12,21,20.30
2012,05,26,12,22,20.30
2012,05,26,12,23,20.30
2012,05,26,12,24,20.30
2012,05,26,12,25,20.30
2012,05,26,12,26,20.30
2012,05,26,12,27,20.40
2012,05,26,12,28,20.40
2012,05,26,12,29,20.30
2012,05,26,12,30,20.30
2012,05,26,12,31,20.40
2012,05,26,12,32,20.30
2012,05,26,12,33,20.20
2012,05,26,12,34,20.20
2012,05,26,12,35,20.20
2012,05,26,12,36,20.30
2012,05,26,12,37,20.40
2012,05,26,12,38,20.40
2012,05,26,12,39,20.40
2012,05,26,12,40,20.50
2012,05,26,12,41,20.50
2012,05,26,12,42,20.60
2012,05,26,12,43,20.60
2012,05,26,12,44,20.60
2012,05,26,12,45,20.60
2012,05,26,12,46,20.60
2012,05,26,12,47,20.60
2012,05,26,12,48,20.70
2012,05,26,12,49,20.80
2012,05,26,12,50,20.80
2012,05,26,12,51,20.90
2012,05,26,12,52,21.00
2012,05,26,12,53,21.00
2012,05,26,12,54,21.10
2012,05,26,12,55,21.20
2012,05,26,12,56,21.10
2012,05,26,12,57,21.00
2012,05,26,12,58,20.90
2012,05,26,12,59,20.90
2012,05,26,13,00,20.80
2012,05,26,13,01,20.70
2012,05,26,13,02,20.60
2012,05,26,13,03,20.60
2012,05,26,13,04,20.60
2012,05,26,13,05,20.60
2012,05,26,13,06,20.80
2012,05,26,13,07,20.90
2012,05,26,13,08,21.00
2012,05,26,13,09,21.00
2012,05,26,13,10,21.10
2012,05,26,13,11,21.20
2012,05,26,13,12,21.30
2012,05,26,13,13,21.40
2012,05,26,13,14,21.50
2012,05,26,13,15,21.60
2012,05,26,13,16,21.50
2012,05,26,13,17,21.40
2012,05,26,13,18,21.30
2012,05,26,13,19,21.30
2012,05,26,13,20,21.20
2012,05,26,13,21,21.20
2012,05,26,13,22,21.20
2012,05,26,13,23,21.10
2012,05,26,13,24,21.00
2012,05,26,13,25,21.00
2012,05,26,13,26,20.90
2012,05,26,13,27,20.80
2012,05,26,13,28,20.80
2012,05,26,13,29,20.80
2012,05,26,13,30,20.80
2012,05,26,13,31,20.80
2012,05,26,13,32,20.70
2012,05,26,13,33,20.70
2012,05,26,13,34,20.80
2012,05,26,13,35,20.90
2012,05,26,13,36,21.00
2012,05,26,13,37,21.00
2012,05,26,13,38,20.90
2012,05,26,13,39,20.80
2012,05,26,13,40,20.80
2012,05,26,13,41,20.80
2012,05,26,13,42,20.80
2012,05,26,13,43,20.90
2012,05,26,13,44,20.90
2012,05,26,13,45,20.80
2012,05,26,13,46,20.80
2012,05,26,13,47,20.70
2012,05,26,13,48,20.70
2012,05,26,13,49,20.60
2012,05,26,13,50,20.50
2012,05,26,13,51,20.40
2012,05,26,13,52,20.30
2012,05,26,13,53,20.20
2012,05,26,13,54,20.10
2012,05,26,13,55,20.10
2012,05,26,13,56,20.10
2012,05,26,13,57,20.00
2012,05,26,13,58,20.00
2012,05,26,13,59,20.00
2012,05,26,14,00,20.00
2012,05,26,14,01,19.90
2012,05,26,14,02,19.80
2012,05,26,14,03,19.80
2012,05,26,14,04,19.70
2012,05,26,14,05,19.70
2012,05,26,14,06,19.60
2012,05,26,14,07,19.60
2012,05,26,14,08,19.60
2012,05,26,14,09,19.60
2012,05,26,14,10,19.60
2012,05,26,14,11,19.60
2012,05,26,14,12,19.70
2012,05,26,14,13,19.70
2012,05,26,14,14,19.80
2012,05,26,14,15,19.80
2012,05,26,14,16,19.70
2012,05,26,14,17,19.70
2012,05,26,14,18,19.70
2012,05,26,14,19,19.70
2012,05,26,14,20,19.80
2012,05,26,14,21,19.80
2012,05,26,14,22,19.90
2012,05,26,14,23,20.00
2012,05,26,14,24,20.10
2012,05,26,14,25,20.20
2012,05,26,14,26,20.30
2012,05,26,14,27,20.40
2012,05,26,14,28,20.50
2012,05,26,14,29,20.60
2012,05,26,14,30,20.80
2012,05,26,14,31,20.90
2012,05,26,14,32,20.90
2012,05,26,14,33,20.90
2012,05,26,14,34,20.90
2012,05,26,14,35,20.80
2012,05,26,14,36,20.70
2012,05,26,14,37,20.50
2012,05,26,14,38,20.40
2012,05,26,14,39,20.30
2012,05,26,14,40,20.30
2012,05,26,14,41,20.30
2012,05,26,14,42,20.30
2012,05,26,14,43,20.30
2012,05,26,14,44,20.40
2012,05,26,14,45,20.40
2012,05,26,14,46,20.30
2012,05,26,14,47,20.30
2012,05,26,14,48,20.30
2012,05,26,14,49,20.40
2012,05,26,14,50,20.50
2012,05,26,14,51,20.60
2012,05,26,14,52,20.60
2012,05,26,14,53,20.60
2012,05,26,14,54,20.70
2012,05,26,14,55,20.80
2012,05,26,14,56,21.00
2012,05,26,14,57,21.10
2012,05,26,14,58,21.30
2012,05,26,14,59,21.40
2012,05,26,15,00,21.40
2012,05,26,15,01,21.50
2012,05,26,15,02,21.50
2012,05,26,15,03,21.60
2012,05,26,15,04,21.80
2012,05,26,15,05,21.80
2012,05,26,15,06,21.90
2012,05,26,15,07,22.00
2012,05,26,15,08,22.10
2012,05,26,15,09,22.00
2012,05,26,15,10,22.00
2012,05,26,15,11,22.00
2012,05,26,15,12,21.90
2012,05,26,15,13,21.90
2012,05,26,15,14,22.00
2012,05,26,15,15,22.10
2012,05,26,15,16,22.10
2012,05,26,15,17,22.20
2012,05,26,15,18,22.20
2012,05,26,15,19,22.20
2012,05,26,15,20,22.10
2012,05,26,15,21,22.00
2012,05,26,15,22,21.90
2012,05,26,15,23,21.80
2012,05,26,15,24,21.80
2012,05,26,15,25,21.80
2012,05,26,15,26,21.80
2012,05,26,15,27,21.90
2012,05,26,15,28,21.90
2012,05,26,15,29,21.80
2012,05,26,15,30,21.80
2012,05,26,15,31,21.80
2012,05,26,15,32,21.70
2012,05,26,15,33,21.60
2012,05,26,15,34,21.50
2012,05,26,15,35,21.40
2012,05,26,15,36,21.30
2012,05,26,15,37,21.20
2012,05,26,15,38,21.10
2012,05,26,15,39,21.00
2012,05,26,15,40,21.10
2012,05,26,15,41,21.10
2012,05,26,15,42,21.20
2012,05,26,15,43,21.20
2012,05,26,15,44,21.20
2012,05,26,15,45,21.20
2012,05,26,15,46,21.10
2012,05,26,15,47,21.10
2012,05,26,15,48,21.10
2012,05,26,15,49,21.20
2012,05,26,15,50,21.20
2012,05,26,15,51,21.30
2012,05,26,15,52,21.40
2012,05,26,15,53,21.50
2012,05,26,15,54,21.60
2012,05,26,15,55,21.70
2012,05,26,15,56,21.70
2012,05,26,15,57,21.70
2012,05,26,15,58,21.80
2012,05,26,15,59,21.90
2012,05,26,16,00,22.00
2012,05,26,16,01,22.10
2012,05,26,16,02,22.20
2012,05,26,16,03,22.20
2012,05,26,16,04,22.30
2012,05,26,16,05,22.30
2012,05,26,16,06,22.30
2012,05,26,16,07,22.20
2012,05,26,16,08,22.10
2012,05,26,16,09,21.90
2012,05,26,16,10,21.70
2012,05,26,16,11,21.50
2012,05,26,16,12,21.30
2012,05,26,16,13,21.30
2012,05,26,16,14,21.30
2012,05,26,16,15,21.30
2012,05,26,16,16,21.30
2012,05,26,16,17,21.30
2012,05,26,16,18,21.30
2012,05,26,16,19,21.30
2012,05,26,16,20,21.30
2012,05,26,16,21,21.30
2012,05,26,16,22,21.30
2012,05,26,16,23,21.40
2012,05,26,16,24,21.40
2012,05,26,16,25,21.50
2012,05,26,16,26,21.60
2012,05,26,16,27,21.60
2012,05,26,16,28,21.50
2012,05,26,16,29,21.50
2012,05,26,16,30,21.40
2012,05,26,16,31,21.30
2012,05,26,16,32,21.30
2012,05,26,16,33,21.30
2012,05,26,16,34,21.30
2012,05,26,16,35,21.20
2012,05,26,16,36,21.20
2012,05,26,16,37,21.20
2012,05,26,16,38,21.20
2012,05,26,16,39,21.20
2012,05,26,16,40,21.10
2012,05,26,16,41,21.10
2012,05,26,16,42,21.10
2012,05,26,16,43,21.10
2012,05,26,16,44,21.10
2012,05,26,16,45,21.00
2012,05,26,16,46,20.90
2012,05,26,16,47,21.00
2012,05,26,16,48,21.00
2012,05,26,16,49,21.10
2012,05,26,16,50,21.20
2012,05,26,16,51,21.20
2012,05,26,16,52,21.10
2012,05,26,16,53,21.10
2012,05,26,16,54,21.00
2012,05,26,16,55,20.90
2012,05,26,16,56,20.90
2012,05,26,16,57,20.90
2012,05,26,16,58,20.80
2012,05,26,16,59,20.90
2012,05,26,17,00,20.90
2012,05,26,17,01,21.00
2012,05,26,17,02,21.10
2012,05,26,17,03,21.20
2012,05,26,17,04,21.20
2012,05,26,17,05,21.20
2012,05,26,17,06,21.10
2012,05,26,17,07,21.10
2012,05,26,17,08,21.00
2012,05,26,17,09,20.80
2012,05,26,17,10,20.70
2012,05,26,17,11,20.70
2012,05,26,17,12,20.70
2012,05,26,17,13,20.60
2012,05,26,17,14,20.50
2012,05,26,17,15,20.40
2012,05,26,17,16,20.50
2012,05,26,17,17,20.50
2012,05,26,17,18,20.60
2012,05,26,17,19,20.60
2012,05,26,17,20,20.60
2012,05,26,17,21,20.60
2012,05,26,17,22,20.70
2012,05,26,17,23,20.70